Date String (YYYY-MM-DD hh:mm:ss) UTC,Instrument flags,Ambient pressure (hPa),Sample flow (lpm),Bypass flow (lpm),Sample temperature (°C),Ambient temperature (°C),ASC tube jacket temperature (°C),LED temperature (°C),Box temperature (°C),Sample RH (%),Span deviation,Mass concentration (μg/m³),Mass concentration (μg/m³),Mass concentration (μg/m³)
DateTimeUTC,F1_M11,P_M11,Q1_M11,Q2_M11,T1_M11,T2_M11,T3_M11,T4_M11,T5_M11,U1_M11,ZSPAN_M11,X0_M11,X2_M11,X1_M11
2022-05-18 23:00:00,,0823.1,5.01,0.00,29.5,28.5,00.0,38.2,31.5,07.8,0000.0,0009.20,0003.46,0001.86
2022-05-18 23:01:00,,0823.1,5.00,0.00,29.5,28.7,00.0,38.3,31.5,07.2,0000.0,0008.83,0003.43,0001.86
2022-05-18 23:02:00,,0823.1,4.99,0.00,29.6,28.7,00.0,38.3,31.6,07.0,0000.0,0008.84,0003.43,0001.86
2022-05-18 23:03:00,,0823.1,5.02,0.00,29.6,28.1,00.0,38.3,31.4,07.2,0000.0,0008.80,0003.39,0001.84
2022-05-18 23:04:00,,0823.0,5.00,0.00,29.5,27.2,00.0,38.2,31.1,06.9,0000.0,0008.78,0003.38,0001.83
2022-05-18 23:05:00,,0823.0,4.99,0.00,29.4,27.0,00.0,38.2,31.0,06.8,0000.0,0008.84,0003.40,0001.84
2022-05-18 23:06:00,,0823.0,5.00,0.00,29.3,27.1,00.0,38.2,31.0,06.9,0000.0,0008.54,0003.39,0001.84
2022-05-18 23:07:00,,0822.9,5.01,0.00,29.3,27.3,00.0,38.2,31.0,07.0,0000.0,0008.44,0003.36,0001.83
2022-05-18 23:08:00,,0823.0,4.99,0.00,29.3,27.5,00.0,38.2,31.1,07.7,0000.0,0008.95,0003.34,0001.83
2022-05-18 23:09:00,,0823.0,5.00,0.00,29.3,27.7,00.0,38.2,31.2,07.5,0000.0,0009.06,0003.34,0001.84
2022-05-18 23:10:00,,0823.0,5.00,0.00,29.4,27.9,00.0,38.2,31.2,07.1,0000.0,0008.45,0003.35,0001.84
2022-05-18 23:11:00,,0823.0,5.00,0.00,29.4,28.1,00.0,38.2,31.3,07.2,0000.0,0008.29,0003.37,0001.84
2022-05-18 23:12:00,,0822.9,5.01,0.00,29.4,28.3,00.0,38.2,31.4,06.8,0000.0,0008.38,0003.38,0001.83
2022-05-18 23:13:00,,0822.9,4.98,0.00,29.5,28.5,00.0,38.2,31.4,07.8,0000.0,0008.43,0003.39,0001.81
2022-05-18 23:14:00,,0823.0,5.01,0.00,29.5,28.6,00.0,38.3,31.5,07.8,0000.0,0008.43,0003.40,0001.82
2022-05-18 23:15:00,,0822.9,4.99,0.00,29.6,28.7,00.0,38.3,31.5,06.9,0000.0,0008.44,0003.38,0001.81
2022-05-18 23:16:00,,0822.9,5.00,0.00,29.6,28.4,00.0,38.3,31.4,07.2,0000.0,0008.23,0003.34,0001.80
2022-05-18 23:17:00,,0822.9,4.99,0.00,29.5,27.5,00.0,38.2,31.2,07.3,0000.0,0008.42,0003.39,0001.81
2022-05-18 23:18:00,,0823.0,5.01,0.00,29.4,27.1,00.0,38.2,31.1,07.4,0000.0,0008.40,0003.41,0001.83
2022-05-18 23:19:00,,0823.0,4.99,0.00,29.4,27.1,00.0,38.2,31.0,07.4,0000.0,0007.75,0003.40,0001.83
2022-05-18 23:20:00,,0823.0,5.00,0.00,29.3,27.3,00.0,38.2,31.1,07.1,0000.0,0007.62,0003.39,0001.83
2022-05-18 23:21:00,,0822.9,5.00,0.00,29.3,27.5,00.0,38.2,31.1,07.1,0000.0,0008.04,0003.35,0001.82
2022-05-18 23:22:00,,0823.0,4.99,0.00,29.3,27.7,00.0,38.2,31.2,07.6,0000.0,0008.33,0003.34,0001.82
2022-05-18 23:23:00,,0823.0,5.01,0.00,29.4,27.9,00.0,38.2,31.2,07.8,0000.0,0008.23,0003.32,0001.83
2022-05-18 23:24:00,,0823.0,5.00,0.00,29.4,28.1,00.0,38.2,31.3,07.4,0000.0,0008.20,0003.31,0001.84
2022-05-18 23:25:00,,0822.9,5.00,0.00,29.4,28.3,00.0,38.2,31.3,07.6,0000.0,0008.22,0003.32,0001.84
2022-05-18 23:26:00,,0822.9,5.00,0.00,29.5,28.4,00.0,38.2,31.4,07.9,0000.0,0008.13,0003.31,0001.84
2022-05-18 23:27:00,,0822.8,5.00,0.00,29.5,28.6,00.0,38.3,31.5,08.0,0000.0,0008.24,0003.35,0001.84
2022-05-18 23:28:00,,0822.8,5.00,0.00,29.6,28.7,00.0,38.3,31.5,08.6,0000.0,0008.06,0003.29,0001.84
2022-05-18 23:29:00,,0822.7,5.00,0.00,29.6,28.6,00.0,38.3,31.5,08.0,0000.0,0008.58,0003.27,0001.85
2022-05-18 23:30:00,,0822.8,5.00,0.00,29.5,27.8,00.0,38.2,31.3,07.5,0000.0,0008.65,0003.27,0001.86
2022-05-18 23:31:00,,0822.8,5.00,0.00,29.4,27.2,00.0,38.2,31.1,07.4,0000.0,0008.57,0003.27,0001.85
2022-05-18 23:32:00,,0822.7,5.00,0.00,29.4,27.1,00.0,38.2,31.1,07.5,0000.0,0008.36,0003.32,0001.86
2022-05-18 23:33:00,,0822.7,4.99,0.00,29.3,27.2,00.0,38.2,31.1,07.5,0000.0,0007.86,0003.29,0001.87
2022-05-18 23:34:00,,0822.7,4.99,0.00,29.3,27.4,00.0,38.2,31.1,07.3,0000.0,0007.90,0003.30,0001.87
2022-05-18 23:35:00,,0822.7,5.00,0.00,29.3,27.6,00.0,38.2,31.1,07.3,0000.0,0007.80,0003.27,0001.86
2022-05-18 23:36:00,,0822.7,5.01,0.00,29.3,27.8,00.0,38.2,31.2,07.3,0000.0,0007.71,0003.24,0001.85
2022-05-18 23:37:00,,0822.7,5.00,0.00,29.4,28.0,00.0,38.2,31.3,07.7,0000.0,0007.80,0003.27,0001.83
2022-05-18 23:38:00,,0822.7,5.00,0.00,29.4,28.2,00.0,38.2,31.3,08.1,0000.0,0008.56,0003.31,0001.83
2022-05-18 23:39:00,,0822.7,4.99,0.00,29.4,28.4,00.0,38.2,31.4,07.8,0000.0,0009.28,0003.32,0001.82
2022-05-18 23:40:00,,0822.7,5.00,0.00,29.5,28.5,00.0,38.2,31.4,07.5,0000.0,0008.78,0003.35,0001.81
2022-05-18 23:41:00,,0822.7,5.01,0.00,29.5,28.6,00.0,38.3,31.5,07.6,0000.0,0008.71,0003.37,0001.79
2022-05-18 23:42:00,,0822.7,4.99,0.00,29.6,28.7,00.0,38.3,31.6,07.6,0000.0,0008.78,0003.35,0001.78
2022-05-18 23:43:00,,0822.7,5.01,0.00,29.6,28.1,00.0,38.3,31.4,07.3,0000.0,0008.70,0003.32,0001.76
2022-05-18 23:44:00,,0822.6,5.00,0.00,29.5,27.2,00.0,38.2,31.1,07.3,0000.0,0008.66,0003.31,0001.74
2022-05-18 23:45:00,,0822.6,4.99,0.00,29.4,27.0,00.0,38.2,31.1,07.5,0000.0,0008.76,0003.35,0001.73
2022-05-18 23:46:00,,0822.6,5.00,0.00,29.3,27.1,00.0,38.2,31.0,07.4,0000.0,0008.74,0003.36,0001.73
2022-05-18 23:47:00,,0822.7,5.00,0.00,29.3,27.3,00.0,38.2,31.0,08.0,0000.0,0008.67,0003.34,0001.74
2022-05-18 23:48:00,,0822.6,5.00,0.00,29.3,27.5,00.0,38.2,31.1,08.1,0000.0,0008.77,0003.31,0001.76
2022-05-18 23:49:00,,0822.6,5.00,0.00,29.3,27.7,00.0,38.2,31.1,08.0,0000.0,0008.57,0003.31,0001.77
2022-05-18 23:50:00,,0822.6,4.99,0.00,29.3,27.9,00.0,38.2,31.2,08.2,0000.0,0007.69,0003.31,0001.79
2022-05-18 23:51:00,,0822.6,5.01,0.00,29.4,28.1,00.0,38.2,31.3,08.0,0000.0,0007.61,0003.29,0001.80
2022-05-18 23:52:00,,0822.6,4.99,0.00,29.4,28.3,00.0,38.2,31.3,08.1,0000.0,0007.59,0003.28,0001.82
2022-05-18 23:53:00,,0822.6,5.01,0.00,29.5,28.4,00.0,38.2,31.4,08.4,0000.0,0007.86,0003.30,0001.84
2022-05-18 23:54:00,,0822.6,5.00,0.00,29.5,28.6,00.0,38.3,31.5,08.3,0000.0,0008.34,0003.31,0001.85
2022-05-18 23:55:00,,0822.6,5.01,0.00,29.6,28.7,00.0,38.3,31.5,08.2,0000.0,0008.73,0003.35,0001.87
2022-05-18 23:56:00,,0822.5,5.01,0.00,29.6,28.3,00.0,38.3,31.4,08.1,0000.0,0008.75,0003.36,0001.90
2022-05-18 23:57:00,,0822.4,5.01,0.00,29.5,27.4,00.0,38.2,31.1,08.5,0000.0,0009.10,0003.41,0001.91
2022-05-18 23:58:00,,0822.4,5.00,0.00,29.4,27.0,00.0,38.1,31.0,08.1,0000.0,0009.38,0003.46,0001.90
2022-05-18 23:59:00,,0822.5,4.99,0.00,29.3,27.0,00.0,38.1,31.0,08.0,0000.0,0009.13,0003.47,0001.89
